Location: Sedan
(39.2354°N, 78.5718°W)
Time: 06:23:20
(UTC+00:00)

N. Korean satellite - Visible Passes

Search period start: 27 November 2021 00:00
Search period end: 07 December 2021 00:00
Orbit: 447 x 495 km, 97.3° (Epoch: 26 November)

Date Brightness Start Highest point End Pass type
(mag) Time Alt. Az. Time Alt. Az. Time Alt. Az.
27 Nov 9.0 09:49:17 10° NE 09:52:00 22° E 09:54:41 10° SSE visible
27 Nov 7.9 11:22:42 10° NNW 11:25:02 17° WNW 11:27:20 10° WSW visible
28 Nov 6.8 10:53:32 10° N 10:56:45 40° WNW 10:59:56 10° SW visible
29 Nov 6.5 10:24:57 10° NNE 10:28:21 74° E 10:31:43 10° S visible
29 Nov 9.6 22:31:36 10° SW 22:34:18 20° W 22:36:58 10° NW visible
30 Nov 8.5 09:56:52 10° NE 09:59:50 28° E 10:02:46 10° SSE visible
30 Nov 8.1 11:30:54 10° NW 11:32:45 14° WNW 11:34:35 10° W visible
01 Dec 9.8 09:29:51 10° ENE 09:31:11 12° E 09:32:30 10° ESE visible
01 Dec 7.1 11:01:27 10° N 11:04:29 31° WNW 11:07:30 10° SW visible
02 Dec 6.2 10:32:42 10° N 10:36:05 84° WNW 10:39:27 10° SSW visible
02 Dec 9.7 22:39:52 10° SW 22:42:06 16° W 22:44:19 10° NW visible
03 Dec 8.0 10:04:26 10° NNE 10:07:35 35° E 10:10:42 10° SSE visible
03 Dec 8.4 11:39:19 10° NW 11:40:24 11° WNW 11:41:30 10° W visible
04 Dec 9.5 09:36:55 10° ENE 09:38:57 15° E 09:40:58 10° SE visible
04 Dec 7.4 11:09:19 10° NNW 11:12:09 25° WNW 11:14:57 10° SW visible
05 Dec 6.3 10:40:24 10° N 10:43:46 63° WNW 10:47:05 10° SSW visible
05 Dec 9.9 22:48:17 10° WSW 22:49:50 12° W 22:51:22 10° WNW visible
06 Dec 7.4 10:11:58 10° NNE 10:15:15 46° E 10:18:31 10° S visible
06 Dec 8.9 22:18:05 10° SSW 22:21:10 28° W 22:24:14 10° NW visible
